Location: Agendoh
(31.0664°N, 8.9343°W)
Time: 09:01:34
(UTC+00:00)

CZ-2C R/B - Pass Details

Date: 06 December 2021
Orbit: 784 x 870 km, 98.2° (Epoch: 24 January)

Event Time Altitude Azimuth Distance (km) Brightness Sun altitude
Rises 06:22:12 0° 181° (S) 3,419 6.1 -12.3°
Reaches altitude 10° 06:24:41 10° 187° (S) 2,477 5.3 -11.8°
Maximum altitude 06:29:58 48° 260° (W) 1,095 3.0 -10.8°
Drops below altitude 10° 06:35:11 10° 334° (NNW) 2,438 4.7 -9.7°
Sets 06:37:36 0° 340° (NNW) 3,361 5.4 -9.2°
